"read_dt","SO2 (ppb)","flags","PMT voltage (V)","lamp voltage (V)","lamp intensity (Hz)","internal temp (C)","react chamber temp (C)","sample flow (l/min)","pres (mmHg)","SO2 bkg (ppb)","SO2 coefficient"
2017-03-09 00:00:00,1763E-3,5C000400,-0724,0839,12020,026.6,045.4,0.224,741.9,01.18,0.508
2017-03-09 00:01:00,1717E-3,5C000400,-0724,0839,12091,026.7,045.4,0.224,742.0,01.18,0.508
2017-03-09 00:02:00,1697E-3,5C000400,-0724,0840,11928,026.7,045.4,0.224,742.0,01.18,0.508
2017-03-09 00:03:00,1788E-3,5C000400,-0724,0840,11983,026.7,045.4,0.224,742.0,01.18,0.508
2017-03-09 00:04:00,2011E-3,5C000400,-0724,0841,12066,026.7,045.4,0.224,742.0,01.18,0.508
2017-03-09 00:05:00,1722E-3,5C000400,-0724,0840,12000,026.7,045.4,0.224,742.0,01.18,0.508
2017-03-09 00:06:00,1672E-3,5C000400,-0724,0840,12029,026.6,045.4,0.224,742.0,01.18,0.508
2017-03-09 00:07:00,1699E-3,5C000400,-0724,0840,12066,026.6,045.4,0.224,742.0,01.18,0.508
2017-03-09 00:08:00,1772E-3,5C000400,-0724,0840,11922,026.6,045.4,0.224,742.1,01.18,0.508
2017-03-09 00:09:00,1638E-3,5C000400,-0724,0840,12041,026.5,045.4,0.224,742.1,01.18,0.508
2017-03-09 00:10:00,1699E-3,5C000400,-0724,0840,12014,026.5,045.4,0.224,742.1,01.18,0.508
2017-03-09 00:11:00,1792E-3,5C000400,-0724,0841,12084,026.5,045.4,0.224,742.1,01.18,0.508
2017-03-09 00:12:00,1825E-3,5C000400,-0724,0841,12085,026.6,045.4,0.224,742.1,01.18,0.508
2017-03-09 00:13:00,1837E-3,5C000400,-0724,0840,12000,026.6,045.4,0.224,742.1,01.18,0.508
2017-03-09 00:14:00,1784E-3,5C000400,-0724,0840,12000,026.6,045.4,0.224,742.1,01.18,0.508
2017-03-09 00:15:00,1588E-3,5C000400,-0724,0841,12006,026.6,045.4,0.224,742.1,01.18,0.508
2017-03-09 00:16:00,1837E-3,5C000400,-0724,0841,11998,026.6,045.4,0.224,742.0,01.18,0.508
2017-03-09 00:17:00,1745E-3,5C000400,-0724,0840,12041,026.6,045.4,0.224,742.1,01.18,0.508
2017-03-09 00:18:00,1815E-3,5C000400,-0724,0839,12124,026.6,045.4,0.224,742.1,01.18,0.508
2017-03-09 00:19:00,1682E-3,5C000400,-0724,0840,12123,026.6,045.4,0.224,742.1,01.18,0.508
2017-03-09 00:20:00,1788E-3,5C000400,-0724,0840,11925,026.5,045.4,0.224,742.1,01.18,0.508
2017-03-09 00:21:00,1846E-3,5C000400,-0724,0840,12055,026.5,045.4,0.224,742.1,01.18,0.508
2017-03-09 00:22:00,1838E-3,5C000400,-0724,0840,11945,026.5,045.4,0.224,742.0,01.18,0.508
2017-03-09 00:23:00,1939E-3,5C000400,-0724,0840,12014,026.5,045.4,0.224,742.0,01.18,0.508
2017-03-09 00:24:00,1733E-3,5C000400,-0724,0839,12131,026.5,045.4,0.224,742.1,01.18,0.508
2017-03-09 00:25:00,1695E-3,5C000400,-0724,0839,12063,026.5,045.4,0.224,742.1,01.18,0.508
2017-03-09 00:26:00,1732E-3,5C000400,-0724,0839,12038,026.5,045.4,0.224,742.0,01.18,0.508
2017-03-09 00:27:00,1865E-3,5C000400,-0724,0839,12035,026.5,045.4,0.224,742.1,01.18,0.508
2017-03-09 00:28:00,1681E-3,5C000400,-0724,0840,11999,026.5,045.4,0.224,742.1,01.18,0.508
2017-03-09 00:29:00,1860E-3,5C000400,-0724,0840,12146,026.5,045.4,0.224,742.1,01.18,0.508
2017-03-09 00:30:00,1884E-3,5C000400,-0724,0840,11951,026.5,045.4,0.224,742.1,01.18,0.508
2017-03-09 00:31:00,1672E-3,5C000400,-0724,0840,12021,026.5,045.4,0.224,742.0,01.18,0.508
2017-03-09 00:32:00,1641E-3,5C000400,-0724,0840,12044,026.6,045.4,0.224,742.1,01.18,0.508
2017-03-09 00:33:00,1809E-3,5C000400,-0724,0840,12132,026.6,045.4,0.224,742.0,01.18,0.508
2017-03-09 00:34:00,1892E-3,5C000400,-0724,0840,11980,026.6,045.4,0.224,742.1,01.18,0.508
2017-03-09 00:35:00,1838E-3,5C000400,-0724,0840,12028,026.6,045.4,0.225,742.0,01.18,0.508
2017-03-09 00:36:00,1765E-3,5C000400,-0724,0840,12038,026.6,045.4,0.225,742.0,01.18,0.508
2017-03-09 00:37:00,1829E-3,5C000400,-0724,0840,12013,026.6,045.4,0.224,742.0,01.18,0.508
2017-03-09 00:38:00,1829E-3,5C000400,-0724,0839,11907,026.5,045.4,0.224,741.9,01.18,0.508
2017-03-09 00:39:00,1854E-3,5C000400,-0724,0840,11998,026.5,045.4,0.224,741.9,01.18,0.508
2017-03-09 00:40:00,1715E-3,5C000400,-0724,0839,12064,026.5,045.4,0.224,741.9,01.18,0.508
2017-03-09 00:41:00,1851E-3,5C000400,-0724,0839,12061,026.4,045.4,0.224,741.9,01.18,0.508
2017-03-09 00:42:00,1834E-3,5C000400,-0724,0840,12044,026.4,045.4,0.224,741.8,01.18,0.508
2017-03-09 00:43:00,1716E-3,5C000400,-0724,0839,12050,026.3,045.4,0.224,741.8,01.18,0.508
2017-03-09 00:44:00,1723E-3,5C000400,-0724,0839,11969,026.4,045.4,0.224,741.8,01.18,0.508
2017-03-09 00:45:00,1832E-3,5C000400,-0724,0840,12191,026.4,045.4,0.224,741.7,01.18,0.508
2017-03-09 00:46:00,1775E-3,5C000400,-0724,0840,12099,026.4,045.4,0.225,741.7,01.18,0.508
2017-03-09 00:47:00,1725E-3,5C000400,-0724,0839,12024,026.5,045.4,0.224,741.7,01.18,0.508
2017-03-09 00:48:00,1785E-3,5C000400,-0724,0840,11961,026.5,045.4,0.224,741.7,01.18,0.508
2017-03-09 00:49:00,1844E-3,5C000400,-0724,0839,12103,026.5,045.4,0.225,741.6,01.18,0.508
2017-03-09 00:50:00,1909E-3,5C000400,-0724,0839,12128,026.5,045.4,0.224,741.6,01.18,0.508
2017-03-09 00:51:00,1835E-3,5C000400,-0724,0839,11984,026.6,045.4,0.224,741.6,01.18,0.508
2017-03-09 00:52:00,1660E-3,5C000400,-0724,0840,12021,026.6,045.4,0.224,741.6,01.18,0.508
2017-03-09 00:53:00,1793E-3,5C000400,-0724,0839,12004,026.5,045.4,0.224,741.6,01.18,0.508
2017-03-09 00:54:00,1766E-3,5C000400,-0724,0839,11965,026.5,045.4,0.224,741.5,01.18,0.508
2017-03-09 00:55:00,1802E-3,5C000400,-0724,0839,12147,026.5,045.4,0.225,741.6,01.18,0.508
2017-03-09 00:56:00,1816E-3,5C000400,-0724,0840,12148,026.5,045.4,0.224,741.6,01.18,0.508
2017-03-09 00:57:00,1767E-3,5C000400,-0724,0840,11970,026.5,045.4,0.224,741.6,01.18,0.508
2017-03-09 00:58:00,1816E-3,5C000400,-0724,0840,12139,026.5,045.4,0.224,741.5,01.18,0.508
2017-03-09 00:59:00,1792E-3,5C000400,-0724,0839,11939,026.5,045.4,0.224,741.6,01.18,0.508
2017-03-09 01:00:00,1714E-3,5C000400,-0724,0840,12014,026.5,045.4,0.224,741.5,01.18,0.508
2017-03-09 01:01:00,1853E-3,5C000400,-0724,0840,12075,026.5,045.4,0.224,741.4,01.18,0.508
2017-03-09 01:02:00,1775E-3,5C000400,-0724,0841,12184,026.5,045.4,0.224,741.5,01.18,0.508
2017-03-09 01:03:00,1881E-3,5C000400,-0724,0840,12050,026.5,045.4,0.224,741.5,01.18,0.508
2017-03-09 01:04:00,1870E-3,5C000400,-0724,0840,12110,026.6,045.4,0.224,741.5,01.18,0.508
2017-03-09 01:05:00,1812E-3,5C000400,-0724,0840,12032,026.5,045.4,0.224,741.5,01.18,0.508
2017-03-09 01:06:00,1818E-3,5C000400,-0724,0839,12089,026.5,045.4,0.224,741.5,01.18,0.508
2017-03-09 01:07:00,1854E-3,5C000400,-0724,0840,11993,026.5,045.4,0.224,741.5,01.18,0.508
2017-03-09 01:08:00,1819E-3,5C000400,-0724,0839,12083,026.5,045.4,0.224,741.6,01.18,0.508
2017-03-09 01:09:00,1763E-3,5C000400,-0724,0840,12032,026.4,045.4,0.224,741.6,01.18,0.508
2017-03-09 01:10:00,1889E-3,5C000400,-0724,0840,12025,026.4,045.4,0.224,741.5,01.18,0.508
2017-03-09 01:11:00,1769E-3,5C000400,-0724,0840,11902,026.4,045.4,0.224,741.6,01.18,0.508
2017-03-09 01:12:00,1813E-3,5C000400,-0724,0840,12038,026.4,045.4,0.224,741.6,01.18,0.508
2017-03-09 01:13:00,1792E-3,5C000400,-0724,0840,12031,026.4,045.4,0.224,741.6,01.18,0.508
2017-03-09 01:14:00,1800E-3,5C000400,-0724,0840,11860,026.4,045.4,0.224,741.6,01.18,0.508
2017-03-09 01:15:00,1822E-3,5C000400,-0724,0840,12172,026.5,045.4,0.225,741.6,01.18,0.508
2017-03-09 01:16:00,1869E-3,5C000400,-0724,0840,11970,026.5,045.4,0.224,741.6,01.18,0.508
2017-03-09 01:17:00,1613E-3,5C000400,-0724,0840,11955,026.5,045.4,0.224,741.6,01.18,0.508
2017-03-09 01:18:00,1877E-3,5C000400,-0724,0839,12099,026.5,045.4,0.224,741.5,01.18,0.508
2017-03-09 01:19:00,1896E-3,5C000400,-0724,0840,12076,026.5,045.4,0.224,741.5,01.18,0.508
2017-03-09 01:20:00,1750E-3,5C000400,-0724,0839,11942,026.6,045.4,0.224,741.5,01.18,0.508
2017-03-09 01:21:00,1888E-3,5C000400,-0724,0840,12105,026.6,045.4,0.224,741.5,01.18,0.508
2017-03-09 01:22:00,1856E-3,5C000400,-0724,0839,12150,026.6,045.4,0.224,741.5,01.18,0.508
2017-03-09 01:23:00,1809E-3,5C000400,-0724,0840,12003,026.6,045.4,0.224,741.4,01.18,0.508
2017-03-09 01:24:00,1784E-3,5C000400,-0724,0840,12014,026.5,045.4,0.224,741.4,01.18,0.508
2017-03-09 01:25:00,1786E-3,5C000400,-0724,0840,12008,026.5,045.4,0.224,741.4,01.18,0.508
2017-03-09 01:26:00,1769E-3,5C000400,-0724,0840,12005,026.5,045.4,0.224,741.3,01.18,0.508
2017-03-09 01:27:00,1940E-3,5C000400,-0724,0839,12047,026.4,045.4,0.224,741.2,01.18,0.508
2017-03-09 01:28:00,1722E-3,5C000400,-0724,0840,11979,026.4,045.4,0.224,741.3,01.18,0.508
2017-03-09 01:29:00,1793E-3,5C000400,-0724,0839,11954,026.4,045.4,0.224,741.2,01.18,0.508
2017-03-09 01:30:00,1935E-3,5C000400,-0724,0840,12069,026.3,045.4,0.225,741.3,01.18,0.508
2017-03-09 01:31:00,1778E-3,5C000400,-0724,0840,12021,026.4,045.4,0.224,741.3,01.18,0.508
2017-03-09 01:32:00,1753E-3,5C000400,-0724,0839,11937,026.4,045.4,0.224,741.3,01.18,0.508
2017-03-09 01:33:00,1694E-3,5C000400,-0724,0839,12006,026.4,045.4,0.224,741.2,01.18,0.508
2017-03-09 01:34:00,1896E-3,5C000400,-0724,0839,12027,026.4,045.4,0.225,741.2,01.18,0.508
2017-03-09 01:35:00,1728E-3,5C000400,-0724,0840,12007,026.5,045.4,0.225,741.2,01.18,0.508
2017-03-09 01:36:00,1688E-3,5C000400,-0724,0840,11946,026.5,045.4,0.225,741.3,01.18,0.508
2017-03-09 01:37:00,1690E-3,5C000400,-0724,0841,12049,026.5,045.4,0.225,741.3,01.18,0.508
2017-03-09 01:38:00,1848E-3,5C000400,-0724,0839,12138,026.5,045.4,0.224,741.3,01.18,0.508
2017-03-09 01:39:00,1779E-3,5C000400,-0724,0839,11990,026.5,045.4,0.224,741.4,01.18,0.508
2017-03-09 01:40:00,1731E-3,5C000400,-0724,0840,12023,026.5,045.4,0.225,741.4,01.18,0.508
2017-03-09 01:41:00,1661E-3,5C000400,-0724,0839,12073,026.5,045.4,0.224,741.4,01.18,0.508
2017-03-09 01:42:00,1780E-3,5C000400,-0724,0839,11995,026.5,045.4,0.224,741.3,01.18,0.508
2017-03-09 01:43:00,1908E-3,5C000400,-0724,0839,12037,026.5,045.4,0.224,741.2,01.18,0.508
2017-03-09 01:44:00,1728E-3,5C000400,-0724,0841,12025,026.4,045.4,0.224,741.1,01.18,0.508
2017-03-09 01:45:00,1803E-3,5C000400,-0724,0839,12026,026.4,045.4,0.225,741.1,01.18,0.508
2017-03-09 01:46:00,1641E-3,5C000400,-0724,0839,12144,026.4,045.4,0.224,741.0,01.18,0.508
2017-03-09 01:47:00,1848E-3,5C000400,-0724,0840,11876,026.3,045.4,0.224,741.0,01.18,0.508
2017-03-09 01:48:00,1869E-3,5C000400,-0724,0840,12011,026.4,045.4,0.224,740.9,01.18,0.508
2017-03-09 01:49:00,1789E-3,5C000400,-0724,0839,12051,026.4,045.4,0.224,740.9,01.18,0.508
2017-03-09 01:50:00,1777E-3,5C000400,-0724,0840,12046,026.4,045.4,0.225,740.9,01.18,0.508
2017-03-09 01:51:00,1766E-3,5C000400,-0724,0839,12161,026.4,045.4,0.225,740.8,01.18,0.508
2017-03-09 01:52:00,1802E-3,5C000400,-0724,0840,12108,026.4,045.4,0.224,740.8,01.18,0.508
2017-03-09 01:53:00,1868E-3,5C000400,-0724,0840,12053,026.5,045.4,0.225,740.8,01.18,0.508
2017-03-09 01:54:00,1840E-3,5C000400,-0724,0840,12127,026.5,045.4,0.224,740.8,01.18,0.508
2017-03-09 01:55:00,1752E-3,5C000400,-0724,0840,12043,026.6,045.4,0.224,740.9,01.18,0.508
2017-03-09 01:56:00,1792E-3,5C000400,-0724,0839,11995,026.6,045.4,0.225,741.0,01.18,0.508
2017-03-09 01:57:00,1673E-3,5C000400,-0724,0839,12020,026.6,045.4,0.224,741.1,01.18,0.508
2017-03-09 01:58:00,1822E-3,5C000400,-0724,0839,12094,026.6,045.4,0.224,741.1,01.18,0.508
2017-03-09 01:59:00,1774E-3,5C000400,-0724,0839,11908,026.6,045.4,0.224,741.1,01.18,0.508
2017-03-09 02:00:00,1706E-3,5C000400,-0724,0839,12134,026.6,045.4,0.224,741.1,01.18,0.508
2017-03-09 02:01:00,1857E-3,5C000400,-0724,0839,12074,026.5,045.4,0.224,741.1,01.18,0.508
2017-03-09 02:02:00,1761E-3,5C000400,-0724,0840,12124,026.5,045.4,0.224,741.1,01.18,0.508
2017-03-09 02:03:00,1826E-3,5C000400,-0724,0839,12018,026.5,045.4,0.224,741.2,01.18,0.508
2017-03-09 02:04:00,1814E-3,5C000400,-0724,0839,11926,026.4,045.4,0.224,741.2,01.18,0.508
2017-03-09 02:05:00,1820E-3,5C000400,-0724,0840,12028,026.4,045.4,0.224,741.2,01.18,0.508
2017-03-09 02:06:00,1783E-3,5C000400,-0724,0840,11950,026.4,045.4,0.224,741.2,01.18,0.508
2017-03-09 02:07:00,1783E-3,5C000400,-0724,0839,11938,026.4,045.4,0.224,741.2,01.18,0.508
2017-03-09 02:08:00,1699E-3,5C000400,-0724,0840,12175,026.4,045.4,0.224,741.2,01.18,0.508
2017-03-09 02:09:00,1721E-3,5C000400,-0724,0839,11978,026.4,045.4,0.224,741.2,01.18,0.508
2017-03-09 02:10:00,1757E-3,5C000400,-0724,0840,12081,026.4,045.4,0.224,741.1,01.18,0.508
2017-03-09 02:11:00,1808E-3,5C000400,-0724,0839,12076,026.4,045.4,0.224,741.0,01.18,0.508
2017-03-09 02:12:00,1829E-3,5C000400,-0724,0839,11937,026.5,045.4,0.224,741.0,01.18,0.508
2017-03-09 02:13:00,1790E-3,5C000400,-0724,0839,11880,026.5,045.4,0.224,741.0,01.18,0.508
2017-03-09 02:14:00,1913E-3,5C000400,-0724,0840,12022,026.5,045.4,0.224,740.9,01.18,0.508
2017-03-09 02:15:00,1743E-3,5C000400,-0724,0840,12060,026.6,045.4,0.224,741.0,01.18,0.508
2017-03-09 02:16:00,1850E-3,5C000400,-0724,0840,12070,026.6,045.4,0.224,741.1,01.18,0.508
2017-03-09 02:17:00,1786E-3,5C000400,-0724,0840,12019,026.6,045.4,0.224,741.0,01.18,0.508
2017-03-09 02:18:00,1761E-3,5C000400,-0724,0839,12101,026.6,045.4,0.224,741.2,01.18,0.508
2017-03-09 02:19:00,1749E-3,5C000400,-0724,0839,12112,026.6,045.4,0.224,741.2,01.18,0.508
2017-03-09 02:20:00,1879E-3,5C000400,-0724,0840,11997,026.6,045.4,0.224,741.2,01.18,0.508
2017-03-09 02:21:00,1795E-3,5C000400,-0724,0839,11987,026.5,045.4,0.224,741.2,01.18,0.508
2017-03-09 02:22:00,1781E-3,5C000400,-0724,0840,11991,026.5,045.4,0.224,741.2,01.18,0.508
2017-03-09 02:23:00,1771E-3,5C000400,-0724,0840,12051,026.5,045.4,0.224,741.2,01.18,0.508
2017-03-09 02:24:00,1861E-3,5C000400,-0724,0839,12027,026.4,045.4,0.224,741.2,01.18,0.508
2017-03-09 02:25:00,1797E-3,5C000400,-0724,0840,12087,026.5,045.4,0.224,741.3,01.18,0.508
2017-03-09 02:26:00,1681E-3,5C000400,-0724,0840,12126,026.5,045.4,0.224,741.3,01.18,0.508
2017-03-09 02:27:00,1677E-3,5C000400,-0724,0840,12130,026.5,045.4,0.224,741.4,01.18,0.508
2017-03-09 02:28:00,1820E-3,5C000400,-0724,0840,11996,026.5,045.4,0.224,741.4,01.18,0.508
2017-03-09 02:29:00,1766E-3,5C000400,-0724,0839,12116,026.6,045.4,0.224,741.5,01.18,0.508
2017-03-09 02:30:00,1686E-3,5C000400,-0724,0839,12087,026.6,045.4,0.224,741.5,01.18,0.508
2017-03-09 02:31:00,1848E-3,5C000400,-0724,0840,12000,026.6,045.4,0.224,741.5,01.18,0.508
2017-03-09 02:32:00,1840E-3,5C000400,-0724,0841,11965,026.6,045.4,0.224,741.5,01.18,0.508
2017-03-09 02:33:00,1715E-3,5C000400,-0724,0840,12003,026.6,045.4,0.224,741.4,01.18,0.508
2017-03-09 02:34:00,1869E-3,5C000400,-0724,0839,11999,026.5,045.4,0.224,741.5,01.18,0.508
2017-03-09 02:35:00,1772E-3,5C000400,-0724,0840,11993,026.5,045.4,0.225,741.4,01.18,0.508
2017-03-09 02:36:00,1734E-3,5C000400,-0724,0840,12143,026.4,045.4,0.224,741.4,01.18,0.508
2017-03-09 02:37:00,1784E-3,5C000400,-0724,0840,12108,026.4,045.4,0.224,741.5,01.18,0.508
2017-03-09 02:38:00,1862E-3,5C000400,-0724,0840,11981,026.4,045.4,0.224,741.5,01.18,0.508
2017-03-09 02:39:00,1687E-3,5C000400,-0724,0840,12100,026.3,045.4,0.224,741.5,01.18,0.508
2017-03-09 02:40:00,1813E-3,5C000400,-0724,0840,12049,026.4,045.4,0.224,741.5,01.18,0.508
2017-03-09 02:41:00,1794E-3,5C000400,-0724,0839,12149,026.3,045.4,0.224,741.5,01.18,0.508
2017-03-09 02:42:00,1738E-3,5C000400,-0724,0840,11993,026.4,045.4,0.224,741.5,01.18,0.508
2017-03-09 02:43:00,1718E-3,5C000400,-0724,0840,12088,026.4,045.4,0.225,741.4,01.18,0.508
2017-03-09 02:44:00,1839E-3,5C000400,-0724,0840,11976,026.4,045.4,0.224,741.4,01.18,0.508
2017-03-09 02:45:00,1686E-3,5C000400,-0724,0840,11987,026.4,045.4,0.224,741.4,01.18,0.508
2017-03-09 02:46:00,1904E-3,5C000400,-0724,0839,12169,026.5,045.4,0.225,741.4,01.18,0.508
2017-03-09 02:47:00,1704E-3,5C000400,-0724,0839,12006,026.5,045.4,0.224,741.3,01.18,0.508
2017-03-09 02:48:00,1855E-3,5C000400,-0724,0840,11966,026.5,045.4,0.225,741.3,01.18,0.508
2017-03-09 02:49:00,1795E-3,5C000400,-0724,0840,11989,026.6,045.4,0.224,741.3,01.18,0.508
2017-03-09 02:50:00,1663E-3,5C000400,-0724,0840,12065,026.6,045.4,0.224,741.3,01.18,0.508
2017-03-09 02:51:00,1728E-3,5C000400,-0724,0840,12095,026.6,045.4,0.224,741.3,01.18,0.508
2017-03-09 02:52:00,1839E-3,5C000400,-0724,0839,11921,026.6,045.4,0.224,741.4,01.18,0.508
2017-03-09 02:53:00,1730E-3,5C000400,-0724,0840,12156,026.6,045.4,0.224,741.4,01.18,0.508
2017-03-09 02:54:00,1784E-3,5C000400,-0724,0840,12004,026.5,045.4,0.224,741.4,01.18,0.508
2017-03-09 02:55:00,1821E-3,5C000400,-0724,0840,12043,026.5,045.4,0.224,741.4,01.18,0.508
2017-03-09 02:56:00,1843E-3,5C000400,-0724,0841,11887,026.4,045.4,0.224,741.4,01.18,0.508
2017-03-09 02:57:00,1950E-3,5C000400,-0724,0839,12073,026.4,045.4,0.224,741.4,01.18,0.508
2017-03-09 02:58:00,1825E-3,5C000400,-0724,0840,12226,026.4,045.4,0.224,741.3,01.18,0.508
2017-03-09 02:59:00,1831E-3,5C000400,-0724,0840,12115,026.4,045.4,0.224,741.3,01.18,0.508
2017-03-09 03:00:00,1752E-3,5C000400,-0724,0840,12125,026.4,045.4,0.224,741.3,01.18,0.508
2017-03-09 03:01:00,1867E-3,5C000400,-0724,0840,12055,026.4,045.4,0.224,741.3,01.18,0.508
2017-03-09 03:02:00,1811E-3,5C000400,-0724,0840,12043,026.3,045.4,0.224,741.2,01.18,0.508
2017-03-09 03:03:00,1773E-3,5C000400,-0724,0840,12093,026.4,045.4,0.224,741.2,01.18,0.508
2017-03-09 03:04:00,1848E-3,5C000400,-0724,0840,12002,026.4,045.4,0.224,741.1,01.18,0.508
2017-03-09 03:05:00,1772E-3,5C000400,-0724,0840,12072,026.5,045.4,0.224,741.1,01.18,0.508
2017-03-09 03:06:00,1749E-3,5C000400,-0724,0840,12199,026.5,045.4,0.224,741.1,01.18,0.508
2017-03-09 03:07:00,1887E-3,5C000400,-0724,0840,12046,026.5,045.4,0.225,741.1,01.18,0.508
2017-03-09 03:08:00,1762E-3,5C000400,-0724,0840,11968,026.6,045.4,0.224,741.0,01.18,0.508
2017-03-09 03:09:00,1956E-3,5C000400,-0724,0839,12055,026.6,045.4,0.224,741.0,01.18,0.508
2017-03-09 03:10:00,1840E-3,5C000400,-0724,0841,12115,026.6,045.4,0.224,741.0,01.18,0.508
2017-03-09 03:11:00,1704E-3,5C000400,-0724,0840,11975,026.5,045.4,0.224,741.0,01.18,0.508
2017-03-09 03:12:00,1889E-3,5C000400,-0724,0839,12059,026.5,045.4,0.224,740.9,01.18,0.508
2017-03-09 03:13:00,1784E-3,5C000400,-0724,0840,11997,026.5,045.4,0.224,741.0,01.18,0.508
2017-03-09 03:14:00,1859E-3,5C000400,-0724,0840,12042,026.4,045.4,0.224,740.9,01.18,0.508
2017-03-09 03:15:00,1752E-3,5C000400,-0724,0840,12086,026.4,045.4,0.224,740.9,01.18,0.508
2017-03-09 03:16:00,1836E-3,5C000400,-0724,0839,11977,026.3,045.4,0.224,741.0,01.18,0.508
2017-03-09 03:17:00,1787E-3,5C000400,-0724,0840,12011,026.3,045.4,0.224,741.0,01.18,0.508
2017-03-09 03:18:00,1828E-3,5C000400,-0724,0840,11958,026.3,045.4,0.225,741.0,01.18,0.508
2017-03-09 03:19:00,1765E-3,5C000400,-0724,0840,12103,026.3,045.4,0.224,741.0,01.18,0.508
2017-03-09 03:20:00,1749E-3,5C000400,-0724,0840,11923,026.4,045.4,0.224,741.0,01.18,0.508
2017-03-09 03:21:00,1915E-3,5C000400,-0724,0840,12081,026.4,045.4,0.225,741.0,01.18,0.508
2017-03-09 03:22:00,1773E-3,5C000400,-0724,0840,12063,026.5,045.4,0.224,741.0,01.18,0.508
2017-03-09 03:23:00,1769E-3,5C000400,-0724,0840,12045,026.5,045.4,0.224,741.0,01.18,0.508
2017-03-09 03:24:00,1829E-3,5C000400,-0724,0840,12120,026.5,045.4,0.224,740.9,01.18,0.508
2017-03-09 03:25:00,1971E-3,5C000400,-0724,0840,12112,026.5,045.4,0.224,740.9,01.18,0.508
2017-03-09 03:26:00,1901E-3,5C000400,-0724,0840,12060,026.5,045.4,0.224,741.0,01.18,0.508
2017-03-09 03:27:00,1790E-3,5C000400,-0724,0840,12103,026.5,045.4,0.224,741.0,01.18,0.508
2017-03-09 03:28:00,1786E-3,5C000400,-0724,0840,12105,026.5,045.4,0.224,741.0,01.18,0.508
2017-03-09 03:29:00,1746E-3,5C000400,-0724,0840,12140,026.4,045.4,0.224,741.0,01.18,0.508
2017-03-09 03:30:00,1817E-3,5C000400,-0724,0840,12004,026.4,045.4,0.224,741.0,01.18,0.508
2017-03-09 03:31:00,1783E-3,5C000400,-0724,0840,12108,026.4,045.4,0.224,741.0,01.18,0.508
2017-03-09 03:32:00,1853E-3,5C000400,-0724,0840,12044,026.3,045.4,0.224,741.0,01.18,0.508
2017-03-09 03:33:00,1714E-3,5C000400,-0724,0840,12056,026.3,045.4,0.224,741.0,01.18,0.508
2017-03-09 03:34:00,1791E-3,5C000400,-0724,0839,12027,026.3,045.4,0.225,741.0,01.18,0.508
2017-03-09 03:35:00,1782E-3,5C000400,-0724,0840,12071,026.3,045.4,0.225,740.9,01.18,0.508
2017-03-09 03:36:00,1829E-3,5C000400,-0724,0839,12070,026.3,045.4,0.225,740.9,01.18,0.508
2017-03-09 03:37:00,1824E-3,5C000400,-0724,0839,12019,026.4,045.4,0.225,740.9,01.18,0.508
2017-03-09 03:38:00,1879E-3,5C000400,-0724,0840,12201,026.4,045.4,0.225,740.9,01.18,0.508
2017-03-09 03:39:00,1825E-3,5C000400,-0724,0840,11976,026.4,045.4,0.224,741.0,01.18,0.508
2017-03-09 03:40:00,1775E-3,5C000400,-0724,0841,12083,026.4,045.4,0.225,740.9,01.18,0.508
2017-03-09 03:41:00,1932E-3,5C000400,-0724,0840,11929,026.5,045.4,0.224,740.9,01.18,0.508
2017-03-09 03:42:00,1782E-3,5C000400,-0724,0840,12044,026.5,045.4,0.225,740.9,01.18,0.508
2017-03-09 03:43:00,1793E-3,5C000400,-0724,0839,12004,026.5,045.4,0.224,740.8,01.18,0.508
2017-03-09 03:44:00,1747E-3,5C000400,-0724,0841,11958,026.5,045.4,0.224,740.8,01.18,0.508
2017-03-09 03:45:00,1709E-3,5C000400,-0724,0840,12036,026.5,045.4,0.224,740.8,01.18,0.508
2017-03-09 03:46:00,1686E-3,5C000400,-0724,0840,11960,026.4,045.4,0.224,740.8,01.18,0.508
2017-03-09 03:47:00,1814E-3,5C000400,-0724,0841,11986,026.4,045.4,0.224,740.8,01.18,0.508
2017-03-09 03:48:00,1803E-3,5C000400,-0724,0839,12076,026.3,045.4,0.225,740.7,01.18,0.508
2017-03-09 03:49:00,1862E-3,5C000400,-0724,0840,12137,026.3,045.4,0.225,740.8,01.18,0.508
2017-03-09 03:50:00,1889E-3,5C000400,-0724,0840,12024,026.3,045.4,0.224,740.7,01.18,0.508
2017-03-09 03:51:00,1724E-3,5C000400,-0724,0840,12118,026.3,045.4,0.224,740.8,01.18,0.508
2017-03-09 03:52:00,1781E-3,5C000400,-0724,0840,12074,026.3,045.4,0.224,740.7,01.18,0.508
2017-03-09 03:53:00,1747E-3,5C000400,-0724,0840,12021,026.3,045.4,0.225,740.6,01.18,0.508
2017-03-09 03:54:00,1808E-3,5C000400,-0724,0840,12010,026.3,045.4,0.225,740.6,01.18,0.508
2017-03-09 03:55:00,1888E-3,5C000400,-0724,0839,12032,026.4,045.4,0.224,740.6,01.18,0.508
2017-03-09 03:56:00,1724E-3,5C000400,-0724,0840,11954,026.4,045.4,0.225,740.6,01.18,0.508
2017-03-09 03:57:00,1732E-3,5C000400,-0724,0840,11920,026.4,045.4,0.224,740.6,01.18,0.508
2017-03-09 03:58:00,1923E-3,5C000400,-0724,0840,12037,026.5,045.4,0.225,740.6,01.18,0.508
2017-03-09 03:59:00,1771E-3,5C000400,-0724,0840,12078,026.5,045.4,0.224,740.6,01.18,0.508
2017-03-09 04:00:00,1808E-3,5C000400,-0724,0840,11988,026.5,045.4,0.225,740.6,01.18,0.508
2017-03-09 04:01:00,1728E-3,5C000400,-0724,0840,11967,026.5,045.4,0.224,740.6,01.18,0.508
2017-03-09 04:02:00,1750E-3,5C000400,-0724,0840,12051,026.5,045.4,0.224,740.7,01.18,0.508
2017-03-09 04:03:00,1820E-3,5C000400,-0724,0840,12036,026.4,045.4,0.224,740.6,01.18,0.508
2017-03-09 04:04:00,1859E-3,5C000400,-0724,0841,12083,026.4,045.4,0.224,740.6,01.18,0.508
2017-03-09 04:05:00,1808E-3,5C000400,-0724,0841,12004,026.4,045.4,0.224,740.6,01.18,0.508
2017-03-09 04:06:00,1641E-3,5C000400,-0724,0840,12078,026.3,045.4,0.225,740.6,01.18,0.508
2017-03-09 04:07:00,1903E-3,5C000400,-0724,0840,11998,026.3,045.4,0.225,740.6,01.18,0.508
2017-03-09 04:08:00,1845E-3,5C000400,-0724,0840,12007,026.3,045.4,0.224,740.6,01.18,0.508
2017-03-09 04:09:00,1642E-3,5C000400,-0724,0840,11840,026.3,045.4,0.224,740.6,01.18,0.508
2017-03-09 04:10:00,1852E-3,5C000400,-0724,0840,12074,026.3,045.4,0.225,740.6,01.18,0.508
2017-03-09 04:11:00,1754E-3,5C000400,-0724,0840,12047,026.3,045.4,0.225,740.6,01.18,0.508
2017-03-09 04:12:00,1713E-3,5C000400,-0724,0841,12148,026.3,045.4,0.224,740.6,01.18,0.508
2017-03-09 04:13:00,1651E-3,5C000400,-0724,0840,12114,026.4,045.4,0.225,740.6,01.18,0.508
2017-03-09 04:14:00,1796E-3,5C000400,-0724,0840,12031,026.4,045.4,0.225,740.6,01.18,0.508
2017-03-09 04:15:00,1831E-3,5C000400,-0724,0840,12089,026.5,045.4,0.224,740.6,01.18,0.508
2017-03-09 04:16:00,1742E-3,5C000400,-0724,0840,11844,026.5,045.4,0.225,740.6,01.18,0.508
2017-03-09 04:17:00,1817E-3,5C000400,-0724,0840,12063,026.5,045.4,0.224,740.6,01.18,0.508
2017-03-09 04:18:00,1790E-3,5C000400,-0724,0840,12043,026.5,045.4,0.224,740.6,01.18,0.508
2017-03-09 04:19:00,1818E-3,5C000400,-0724,0840,12060,026.5,045.4,0.224,740.6,01.18,0.508
2017-03-09 04:20:00,1782E-3,5C000400,-0724,0840,11990,026.4,045.4,0.225,740.6,01.18,0.508